NOZ11G EGKK-ENGM

Flight info

Callsign NOZ11G
Flight time 1h 38m
Altitude 39000
Route FRANE M604 GIVPO DCT LARGA DCT INBOB M604 LANTI DCT VAVET DCT PIPEX M609 RIPAM
Aircraft B738/M-SDE3GHIJ1LRWXY/SB1

Departure

Time 2026-05-06 20:13
Airport London Gatwick Airport (EGKK)

Arrival

Time 2026-05-06 21:51
Airport Oslo-Gardermoen International Airport (ENGM)
Time Latitude Longitude Altitude Speed Heading
2026-05-06 19:33 51.15505 -0.16778 203 ft 0 kts 347°
2026-05-06 19:58 51.15482 -0.16770 213 ft 4 kts 348°
2026-05-06 19:58 51.15461 -0.16761 216 ft 4 kts 325°
2026-05-06 19:59 51.15446 -0.16730 212 ft 4 kts 280°
2026-05-06 19:59 51.15445 -0.16688 203 ft 4 kts 261°
2026-05-06 19:59 51.15450 -0.16647 214 ft 3 kts 257°
2026-05-06 19:59 51.15455 -0.16612 212 ft 1 kts 257°
2026-05-06 20:03 51.15446 -0.16677 209 ft 12 kts 260°
2026-05-06 20:03 51.15452 -0.16804 212 ft 11 kts 259°
2026-05-06 20:04 51.15431 -0.16949 209 ft 16 kts 257°
2026-05-06 20:04 51.15409 -0.17110 211 ft 13 kts 258°
2026-05-06 20:04 51.15380 -0.17225 203 ft 11 kts 250°
2026-05-06 20:04 51.15360 -0.17332 209 ft 8 kts 249°
2026-05-06 20:05 51.15313 -0.17384 208 ft 9 kts 225°
2026-05-06 20:05 51.15295 -0.17483 203 ft 11 kts 261°
2026-05-06 20:05 51.15277 -0.17619 213 ft 15 kts 257°
2026-05-06 20:05 51.15254 -0.17783 206 ft 15 kts 257°
2026-05-06 20:06 51.15231 -0.17946 203 ft 15 kts 258°
2026-05-06 20:06 51.15210 -0.18104 206 ft 14 kts 258°
2026-05-06 20:06 51.15190 -0.18251 209 ft 12 kts 257°
2026-05-06 20:06 51.15179 -0.18379 203 ft 12 kts 256°
2026-05-06 20:07 51.15159 -0.18518 212 ft 15 kts 258°
2026-05-06 20:07 51.15135 -0.18698 202 ft 19 kts 257°
2026-05-06 20:07 51.15104 -0.18922 206 ft 22 kts 257°
2026-05-06 20:07 51.15068 -0.19179 207 ft 26 kts 257°
2026-05-06 20:08 51.15027 -0.19478 209 ft 29 kts 258°
2026-05-06 20:08 51.14984 -0.19787 213 ft 28 kts 257°
2026-05-06 20:08 51.14944 -0.20076 208 ft 26 kts 258°
2026-05-06 20:08 51.14908 -0.20340 210 ft 24 kts 257°
2026-05-06 20:09 51.14875 -0.20585 208 ft 23 kts 258°
2026-05-06 20:09 51.14841 -0.20827 214 ft 22 kts 257°
2026-05-06 20:09 51.14809 -0.21057 209 ft 16 kts 258°
2026-05-06 20:09 51.14788 -0.21170 209 ft 11 kts 247°
2026-05-06 20:10 51.14769 -0.21282 210 ft 11 kts 257°
2026-05-06 20:10 51.14744 -0.21392 212 ft 8 kts 221°
2026-05-06 20:10 51.14728 -0.21401 203 ft 0 kts 191°
2026-05-06 20:11 51.14720 -0.21403 203 ft 4 kts 187°
2026-05-06 20:11 51.14663 -0.21362 213 ft 12 kts 135°
2026-05-06 20:12 51.14601 -0.21320 208 ft 10 kts 165°
2026-05-06 20:12 51.14539 -0.21270 208 ft 11 kts 130°
2026-05-06 20:12 51.14520 -0.21164 201 ft 10 kts 78°
2026-05-06 20:12 51.14556 -0.20909 207 ft 54 kts 77°
2026-05-06 20:13 51.14693 -0.19913 206 ft 127 kts 78°
2026-05-06 20:13 51.14918 -0.18335 560 ft 152 kts 77°
2026-05-06 20:13 51.15149 -0.16676 1354 ft 156 kts 76°
2026-05-06 20:13 51.15399 -0.14838 1763 ft 185 kts 75°
2026-05-06 20:14 51.15693 -0.12686 2026 ft 212 kts 76°
2026-05-06 20:14 51.16024 -0.10280 2319 ft 232 kts 76°
2026-05-06 20:14 51.16382 -0.07687 2649 ft 251 kts 76°
2026-05-06 20:14 51.16770 -0.04887 3430 ft 258 kts 76°
2026-05-06 20:15 51.16967 -0.02042 4308 ft 262 kts 89°
2026-05-06 20:15 51.16881 0.00850 5054 ft 269 kts 92°
2026-05-06 20:15 51.16791 0.03883 5783 ft 268 kts 92°
2026-05-06 20:15 51.16720 0.06853 6626 ft 271 kts 91°
2026-05-06 20:16 51.16657 0.09881 7556 ft 278 kts 91°
2026-05-06 20:16 51.16596 0.13010 8539 ft 285 kts 91°
2026-05-06 20:16 51.16541 0.16186 9592 ft 289 kts 90°
2026-05-06 20:16 51.16542 0.19430 10541 ft 295 kts 88°
2026-05-06 20:17 51.16560 0.22714 11499 ft 299 kts 88°
2026-05-06 20:17 51.16574 0.26050 12421 ft 305 kts 89°
2026-05-06 20:17 51.16582 0.29428 12851 ft 306 kts 89°
2026-05-06 20:17 51.16587 0.32843 12956 ft 309 kts 89°
2026-05-06 20:18 51.16590 0.36263 12965 ft 308 kts 89°
2026-05-06 20:18 51.16594 0.39678 12975 ft 308 kts 89°
2026-05-06 20:18 51.16595 0.43090 12975 ft 309 kts 89°
2026-05-06 20:18 51.16594 0.46517 12974 ft 309 kts 89°
2026-05-06 20:19 51.16690 0.49934 12957 ft 309 kts 77°
2026-05-06 20:19 51.17522 0.53034 12977 ft 306 kts 52°
2026-05-06 20:19 51.19076 0.55274 12964 ft 301 kts 27°
2026-05-06 20:19 51.21023 0.56417 12979 ft 298 kts 13°
2026-05-06 20:20 51.23045 0.57211 12974 ft 299 kts 12°
2026-05-06 20:20 51.25073 0.57954 12965 ft 299 kts 11°
2026-05-06 20:20 51.27097 0.58687 12969 ft 299 kts 11°
2026-05-06 20:20 51.28439 0.59169 12970 ft 298 kts 11°
2026-05-06 20:21 51.31119 0.60130 12974 ft 298 kts 11°
2026-05-06 20:21 51.33139 0.60854 13014 ft 297 kts 11°
2026-05-06 20:21 51.35156 0.61574 13017 ft 297 kts 11°
2026-05-06 20:21 51.37173 0.62295 13012 ft 297 kts 11°
2026-05-06 20:22 51.39191 0.63017 13013 ft 297 kts 11°
2026-05-06 20:22 51.41207 0.63740 13018 ft 300 kts 11°
2026-05-06 20:22 51.42598 0.64238 13042 ft 321 kts 11°
2026-05-06 20:22 51.44874 0.65045 13039 ft 343 kts 11°
2026-05-06 20:23 51.47209 0.65975 13020 ft 349 kts 19°
2026-05-06 20:23 51.49282 0.68043 13468 ft 358 kts 42°
2026-05-06 20:23 51.50935 0.71030 14482 ft 358 kts 49°
2026-05-06 20:23 51.52488 0.74174 15397 ft 361 kts 50°
2026-05-06 20:24 51.54212 0.77134 16141 ft 366 kts 37°
2026-05-06 20:24 51.56388 0.79276 16932 ft 369 kts 23°
2026-05-06 20:24 51.58747 0.80940 17749 ft 373 kts 22°
2026-05-06 20:24 51.61141 0.82630 18479 ft 379 kts 22°
2026-05-06 20:25 51.63567 0.84372 19158 ft 384 kts 22°
2026-05-06 20:25 51.66014 0.86161 19868 ft 388 kts 22°
2026-05-06 20:25 51.68473 0.87984 20562 ft 392 kts 23°
2026-05-06 20:25 51.70961 0.89846 21236 ft 397 kts 23°
2026-05-06 20:26 51.73474 0.91738 21910 ft 401 kts 23°
2026-05-06 20:26 51.76015 0.93657 22548 ft 405 kts 23°
2026-05-06 20:26 51.78583 0.95600 23147 ft 410 kts 23°
2026-05-06 20:26 51.81178 0.97567 23744 ft 414 kts 23°
2026-05-06 20:27 51.83797 0.99554 24277 ft 417 kts 23°
2026-05-06 20:27 51.86438 1.01559 24819 ft 420 kts 23°
2026-05-06 20:27 51.89094 1.03581 25341 ft 424 kts 23°
2026-05-06 20:27 51.91771 1.05621 25841 ft 427 kts 23°
2026-05-06 20:28 51.94474 1.07681 26329 ft 431 kts 23°
2026-05-06 20:28 51.97190 1.09754 26809 ft 433 kts 23°
2026-05-06 20:28 51.99929 1.11847 27275 ft 437 kts 23°
2026-05-06 20:28 52.02692 1.13963 27729 ft 440 kts 23°
2026-05-06 20:29 52.05463 1.16088 28194 ft 443 kts 23°
2026-05-06 20:29 52.08268 1.18242 28608 ft 447 kts 23°
2026-05-06 20:29 52.11079 1.20461 29019 ft 452 kts 26°
2026-05-06 20:29 52.13730 1.23260 29415 ft 457 kts 37°
2026-05-06 20:30 52.16188 1.26575 29845 ft 460 kts 39°
2026-05-06 20:30 52.21075 1.33423 30502 ft 466 kts 39°
2026-05-06 20:30 52.23551 1.36853 30828 ft 468 kts 38°
2026-05-06 20:31 52.26051 1.40281 31144 ft 470 kts 38°
2026-05-06 20:31 52.28566 1.43711 31469 ft 472 kts 38°
2026-05-06 20:31 52.31094 1.47158 31740 ft 475 kts 38°
2026-05-06 20:31 52.33622 1.50633 32147 ft 475 kts 39°
2026-05-06 20:32 52.36022 1.54325 32652 ft 473 kts 43°
2026-05-06 20:32 52.38315 1.58178 33149 ft 471 kts 45°
2026-05-06 20:32 52.40561 1.62072 33546 ft 471 kts 45°
2026-05-06 20:32 52.42814 1.65980 33916 ft 472 kts 45°
2026-05-06 20:33 52.45076 1.69865 34289 ft 471 kts 45°
2026-05-06 20:33 52.47313 1.73674 34625 ft 470 kts 44°
2026-05-06 20:33 52.49619 1.77577 34930 ft 470 kts 44°
2026-05-06 20:33 52.51897 1.81429 35238 ft 470 kts 44°
2026-05-06 20:34 52.54144 1.85233 35506 ft 471 kts 44°
2026-05-06 20:34 52.56423 1.89103 35811 ft 471 kts 45°
2026-05-06 20:34 52.58698 1.92975 36149 ft 470 kts 45°
2026-05-06 20:34 52.60962 1.96835 36471 ft 469 kts 45°
2026-05-06 20:35 52.63228 2.00706 36771 ft 470 kts 45°
2026-05-06 20:35 52.65500 2.04591 37029 ft 471 kts 45°
2026-05-06 20:35 52.67769 2.08478 37290 ft 471 kts 45°
2026-05-06 20:35 52.70040 2.12375 37602 ft 471 kts 45°
2026-05-06 20:36 52.72306 2.16269 37914 ft 470 kts 45°
2026-05-06 20:36 52.74570 2.20164 38161 ft 471 kts 45°
2026-05-06 20:36 52.76839 2.24075 38398 ft 472 kts 45°
2026-05-06 20:36 52.79104 2.27987 38679 ft 471 kts 45°
2026-05-06 20:37 52.81368 2.31902 38911 ft 471 kts 45°
2026-05-06 20:37 52.83635 2.35829 39023 ft 473 kts 45°
2026-05-06 20:37 52.85913 2.39782 39018 ft 476 kts 45°
2026-05-06 20:38 52.90470 2.47713 39017 ft 474 kts 45°
2026-05-06 20:38 52.94978 2.55577 39012 ft 469 kts 45°
2026-05-06 20:39 52.99783 2.62824 39029 ft 466 kts 32°
2026-05-06 20:39 53.05476 2.67852 39034 ft 463 kts 24°
2026-05-06 20:40 53.11284 2.72500 39028 ft 464 kts 24°
2026-05-06 20:40 53.17082 2.77269 39028 ft 465 kts 25°
2026-05-06 20:41 53.22879 2.82115 39034 ft 467 kts 25°
2026-05-06 20:41 53.28699 2.86993 39028 ft 468 kts 24°
2026-05-06 20:42 53.34579 2.91693 39020 ft 469 kts 23°
2026-05-06 20:42 53.40473 2.96258 39019 ft 470 kts 23°
2026-05-06 20:43 53.46406 3.00877 39016 ft 470 kts 23°
2026-05-06 20:43 53.52330 3.05536 39021 ft 470 kts 23°
2026-05-06 20:44 53.58245 3.10218 39022 ft 470 kts 23°
2026-05-06 20:44 53.64160 3.14915 39012 ft 470 kts 23°
2026-05-06 20:45 53.70064 3.19617 39031 ft 469 kts 23°
2026-05-06 20:45 53.75961 3.24326 39035 ft 469 kts 23°
2026-05-06 20:46 53.81865 3.29056 39037 ft 469 kts 23°
2026-05-06 20:46 53.87760 3.33796 39033 ft 469 kts 24°
2026-05-06 20:47 53.93646 3.38541 39041 ft 468 kts 24°
2026-05-06 20:47 53.99535 3.43299 39038 ft 468 kts 23°
2026-05-06 20:48 54.05411 3.48068 39042 ft 468 kts 23°
2026-05-06 20:48 54.11282 3.52847 39044 ft 467 kts 24°
2026-05-06 20:49 54.17148 3.57636 39044 ft 467 kts 24°
2026-05-06 20:49 54.23015 3.62442 39049 ft 467 kts 23°
2026-05-06 20:50 54.28875 3.67256 39046 ft 468 kts 23°
2026-05-06 20:50 54.34743 3.72097 39044 ft 468 kts 23°
2026-05-06 20:51 54.40598 3.76937 39041 ft 467 kts 24°
2026-05-06 20:51 54.46418 3.81762 39059 ft 468 kts 24°
2026-05-06 20:52 54.52288 3.86647 39052 ft 469 kts 24°
2026-05-06 20:52 54.58173 3.91560 39048 ft 470 kts 24°
2026-05-06 20:53 54.64057 3.96488 39046 ft 470 kts 24°
2026-05-06 20:53 54.69940 4.01434 39061 ft 471 kts 24°
2026-05-06 20:54 54.75829 4.06397 39056 ft 471 kts 24°
2026-05-06 20:54 54.81714 4.11375 39050 ft 471 kts 24°
2026-05-06 20:55 54.87578 4.16482 39035 ft 472 kts 28°
2026-05-06 20:55 54.93143 4.22577 39038 ft 473 kts 31°
2026-05-06 20:56 54.98626 4.28912 39037 ft 473 kts 31°
2026-05-06 20:56 55.04132 4.35205 39033 ft 473 kts 31°
2026-05-06 20:57 55.09647 4.41442 39023 ft 472 kts 31°
2026-05-06 20:57 55.15164 4.47677 39033 ft 472 kts 31°
2026-05-06 20:58 55.20678 4.53931 39047 ft 473 kts 31°
2026-05-06 20:58 55.26156 4.60170 39036 ft 473 kts 31°
2026-05-06 20:59 55.31677 4.66481 39039 ft 474 kts 31°
2026-05-06 20:59 55.37203 4.72818 39038 ft 474 kts 31°
2026-05-06 21:00 55.42726 4.79174 39041 ft 475 kts 31°
2026-05-06 21:00 55.48257 4.85560 39050 ft 475 kts 31°
2026-05-06 21:01 55.53785 4.91965 39052 ft 476 kts 31°
2026-05-06 21:01 55.59312 4.98390 39045 ft 475 kts 31°
2026-05-06 21:02 55.64831 5.04827 39046 ft 475 kts 31°
2026-05-06 21:02 55.70344 5.11286 39061 ft 475 kts 31°
2026-05-06 21:03 55.75856 5.17759 39048 ft 475 kts 31°
2026-05-06 21:03 55.81362 5.24251 39051 ft 475 kts 31°
2026-05-06 21:04 55.86864 5.30761 39046 ft 475 kts 31°
2026-05-06 21:04 55.92358 5.37283 39047 ft 474 kts 31°
2026-05-06 21:05 55.97845 5.43816 39057 ft 474 kts 31°
2026-05-06 21:05 56.03334 5.50374 39050 ft 474 kts 31°
2026-05-06 21:06 56.08816 5.56948 39052 ft 475 kts 31°
2026-05-06 21:06 56.14295 5.63538 39046 ft 475 kts 31°
2026-05-06 21:07 56.19778 5.70160 39055 ft 475 kts 31°
2026-05-06 21:07 56.25222 5.76754 39042 ft 475 kts 32°
2026-05-06 21:08 56.30698 5.83417 39050 ft 475 kts 32°
2026-05-06 21:08 56.36176 5.90105 39045 ft 475 kts 32°
2026-05-06 21:09 56.41653 5.96809 39048 ft 476 kts 32°
2026-05-06 21:09 56.47136 6.03548 39049 ft 477 kts 32°
2026-05-06 21:10 56.52621 6.10314 39047 ft 478 kts 32°
2026-05-06 21:10 56.57226 6.16015 39043 ft 478 kts 32°
2026-05-06 21:11 56.62684 6.22790 39041 ft 478 kts 32°
2026-05-06 21:11 56.68170 6.29626 39037 ft 478 kts 32°
2026-05-06 21:12 56.73659 6.36491 39042 ft 479 kts 32°
2026-05-06 21:12 56.79152 6.43387 39035 ft 479 kts 32°
2026-05-06 21:13 56.84646 6.50304 39035 ft 480 kts 32°
2026-05-06 21:13 56.90128 6.57234 39030 ft 479 kts 32°
2026-05-06 21:14 56.95609 6.64189 39045 ft 479 kts 32°
2026-05-06 21:14 57.01108 6.71100 39027 ft 479 kts 30°
2026-05-06 21:15 57.06816 6.77376 39033 ft 478 kts 27°
2026-05-06 21:15 57.12578 6.83461 39025 ft 478 kts 27°
2026-05-06 21:16 57.18324 6.89637 39019 ft 478 kts 28°
2026-05-06 21:16 57.24060 6.95897 39025 ft 479 kts 28°
2026-05-06 21:17 57.29795 7.02193 39020 ft 480 kts 28°
2026-05-06 21:17 57.35533 7.08510 39019 ft 480 kts 28°
2026-05-06 21:18 57.41273 7.14849 39017 ft 480 kts 28°
2026-05-06 21:18 57.47016 7.21214 39011 ft 481 kts 28°
2026-05-06 21:19 57.52693 7.27822 39005 ft 482 kts 31°
2026-05-06 21:19 57.58225 7.34873 39009 ft 482 kts 32°
2026-05-06 21:20 57.63751 7.41964 39008 ft 482 kts 32°
2026-05-06 21:20 57.69296 7.49016 39006 ft 483 kts 31°
2026-05-06 21:21 57.74860 7.56072 39009 ft 483 kts 31°
2026-05-06 21:21 57.80425 7.63149 39004 ft 484 kts 32°
2026-05-06 21:22 57.85958 7.70214 39005 ft 485 kts 32°
2026-05-06 21:22 57.91524 7.77356 39001 ft 484 kts 32°
2026-05-06 21:23 57.97085 7.84514 39014 ft 484 kts 32°
2026-05-06 21:23 58.02651 7.91707 38998 ft 485 kts 32°
2026-05-06 21:24 58.08214 7.98924 38998 ft 485 kts 32°
2026-05-06 21:24 58.13781 8.06173 38997 ft 486 kts 32°
2026-05-06 21:25 58.19346 8.13447 38997 ft 486 kts 32°
2026-05-06 21:25 58.24910 8.20749 39001 ft 487 kts 32°
2026-05-06 21:26 58.30484 8.28094 38999 ft 488 kts 32°
2026-05-06 21:26 58.36052 8.35459 38998 ft 488 kts 32°
2026-05-06 21:27 58.41624 8.42858 38998 ft 488 kts 32°
2026-05-06 21:27 58.47216 8.50309 38401 ft 495 kts 32°
2026-05-06 21:27 58.50028 8.54071 37760 ft 492 kts 32°
2026-05-06 21:28 58.52823 8.57819 37113 ft 490 kts 32°
2026-05-06 21:28 58.55613 8.61564 36453 ft 489 kts 32°
2026-05-06 21:28 58.58389 8.65299 35809 ft 488 kts 32°
2026-05-06 21:28 58.61170 8.69043 35119 ft 488 kts 32°
2026-05-06 21:29 58.63952 8.72799 34362 ft 490 kts 31°
2026-05-06 21:29 58.66728 8.76649 33311 ft 497 kts 33°
2026-05-06 21:29 58.69467 8.80755 32383 ft 499 kts 35°
2026-05-06 21:29 58.72166 8.84940 31567 ft 498 kts 35°
2026-05-06 21:30 58.74846 8.89111 31028 ft 492 kts 35°
2026-05-06 21:30 58.77468 8.93156 30435 ft 487 kts 34°
2026-05-06 21:30 58.80109 8.97193 29820 ft 482 kts 34°
2026-05-06 21:30 58.82719 9.01168 29155 ft 476 kts 34°
2026-05-06 21:31 58.85307 9.05113 28558 ft 470 kts 34°
2026-05-06 21:31 58.87851 9.09007 27918 ft 465 kts 34°
2026-05-06 21:31 58.90368 9.12872 27324 ft 459 kts 34°
2026-05-06 21:31 58.92856 9.16701 26755 ft 454 kts 34°
2026-05-06 21:32 58.95311 9.20484 26177 ft 449 kts 34°
2026-05-06 21:32 59.00147 9.27954 25106 ft 440 kts 34°
2026-05-06 21:32 59.02523 9.31634 24536 ft 436 kts 34°
2026-05-06 21:33 59.04882 9.35294 23989 ft 432 kts 34°
2026-05-06 21:33 59.07222 9.38931 23415 ft 429 kts 34°
2026-05-06 21:33 59.09540 9.42540 22775 ft 425 kts 34°
2026-05-06 21:33 59.11835 9.46092 22387 ft 415 kts 33°
2026-05-06 21:34 59.14083 9.49523 22112 ft 406 kts 33°
2026-05-06 21:34 59.16299 9.52883 21846 ft 405 kts 33°
2026-05-06 21:34 59.18547 9.56282 21579 ft 412 kts 33°
2026-05-06 21:34 59.20814 9.59719 21234 ft 412 kts 33°
2026-05-06 21:35 59.23060 9.63144 20722 ft 407 kts 33°
2026-05-06 21:35 59.25281 9.66546 20217 ft 404 kts 33°
2026-05-06 21:35 59.27483 9.69925 19666 ft 401 kts 33°
2026-05-06 21:35 59.29666 9.73282 19130 ft 398 kts 33°
2026-05-06 21:36 59.31835 9.76623 18600 ft 395 kts 33°
2026-05-06 21:36 59.33984 9.79939 18052 ft 392 kts 33°
2026-05-06 21:36 59.36088 9.83189 17484 ft 389 kts 33°
2026-05-06 21:36 59.38228 9.86500 16931 ft 385 kts 33°
2026-05-06 21:37 59.40294 9.89703 16405 ft 382 kts 34°
2026-05-06 21:37 59.42366 9.92920 15895 ft 378 kts 34°
2026-05-06 21:37 59.44416 9.96106 15393 ft 374 kts 34°
2026-05-06 21:37 59.46450 9.99275 14881 ft 371 kts 34°
2026-05-06 21:38 59.48459 10.02407 14409 ft 367 kts 34°
2026-05-06 21:38 59.50454 10.05525 13943 ft 365 kts 35°
2026-05-06 21:38 59.52432 10.08619 13389 ft 363 kts 35°
2026-05-06 21:38 59.54400 10.11703 12872 ft 359 kts 35°
2026-05-06 21:39 59.56346 10.14758 12364 ft 356 kts 36°
2026-05-06 21:39 59.58270 10.17782 11881 ft 352 kts 36°
2026-05-06 21:39 59.60179 10.20786 11401 ft 349 kts 36°
2026-05-06 21:39 59.62067 10.23762 10924 ft 346 kts 36°
2026-05-06 21:40 59.63936 10.26711 10547 ft 341 kts 36°
2026-05-06 21:40 59.65752 10.29586 10406 ft 328 kts 36°
2026-05-06 21:40 59.67505 10.32365 10269 ft 317 kts 36°
2026-05-06 21:40 59.69196 10.35050 10126 ft 306 kts 36°
2026-05-06 21:41 59.70830 10.37646 10008 ft 296 kts 36°
2026-05-06 21:41 59.72420 10.40172 9737 ft 293 kts 37°
2026-05-06 21:41 59.74006 10.42693 9416 ft 290 kts 37°
2026-05-06 21:41 59.75571 10.45186 9120 ft 287 kts 37°
2026-05-06 21:42 59.77123 10.47662 8819 ft 285 kts 37°
2026-05-06 21:42 59.78657 10.50113 8524 ft 282 kts 37°
2026-05-06 21:42 59.80177 10.52544 8224 ft 279 kts 37°
2026-05-06 21:42 59.81683 10.54956 7934 ft 277 kts 38°
2026-05-06 21:43 59.83179 10.57352 7644 ft 275 kts 38°
2026-05-06 21:43 59.84657 10.59726 7368 ft 272 kts 38°
2026-05-06 21:43 59.86123 10.62081 7075 ft 270 kts 38°
2026-05-06 21:43 59.87574 10.64419 6802 ft 268 kts 38°
2026-05-06 21:44 59.89017 10.66742 6530 ft 265 kts 38°
2026-05-06 21:44 59.90446 10.69046 6247 ft 263 kts 39°
2026-05-06 21:44 59.91837 10.71291 5972 ft 260 kts 39°
2026-05-06 21:44 59.93241 10.73561 5690 ft 259 kts 39°
2026-05-06 21:45 59.94624 10.75800 5560 ft 252 kts 39°
2026-05-06 21:45 59.95962 10.77968 5447 ft 243 kts 39°
2026-05-06 21:45 59.97124 10.80320 5321 ft 237 kts 61°
2026-05-06 21:45 59.97572 10.83435 5282 ft 234 kts 82°
2026-05-06 21:46 59.97746 10.86680 5185 ft 237 kts 85°
2026-05-06 21:46 59.97895 10.89953 4976 ft 234 kts 85°
2026-05-06 21:46 59.98045 10.93124 4730 ft 225 kts 84°
2026-05-06 21:46 59.98195 10.96165 4493 ft 215 kts 84°
2026-05-06 21:47 59.98593 10.98941 4235 ft 208 kts 53°
2026-05-06 21:47 59.99759 11.00478 4104 ft 203 kts 14°
2026-05-06 21:47 60.01132 11.01192 4040 ft 206 kts 15°
2026-05-06 21:47 60.02510 11.02031 3877 ft 211 kts 16°
2026-05-06 21:48 60.03920 11.02868 3584 ft 209 kts 15°
2026-05-06 21:48 60.05289 11.03665 3303 ft 201 kts 15°
2026-05-06 21:48 60.06608 11.04428 3028 ft 195 kts 15°
2026-05-06 21:48 60.07893 11.05173 2766 ft 190 kts 15°
2026-05-06 21:49 60.09147 11.05898 2510 ft 185 kts 14°
2026-05-06 21:49 60.10369 11.06606 2251 ft 178 kts 14°
2026-05-06 21:49 60.11512 11.07269 2024 ft 165 kts 14°
2026-05-06 21:49 60.12579 11.07887 1803 ft 153 kts 13°
2026-05-06 21:50 60.13547 11.08448 1569 ft 139 kts 13°
2026-05-06 21:50 60.14449 11.08968 1373 ft 135 kts 14°
2026-05-06 21:50 60.15382 11.09508 1170 ft 141 kts 14°
2026-05-06 21:50 60.16321 11.10057 991 ft 143 kts 14°
2026-05-06 21:51 60.17272 11.10602 773 ft 138 kts 14°
2026-05-06 21:51 60.18164 11.11115 681 ft 126 kts 14°
2026-05-06 21:51 60.18831 11.11503 683 ft 70 kts 16°
2026-05-06 21:51 60.19097 11.11654 683 ft 22 kts 15°
2026-05-06 21:52 60.19247 11.11699 682 ft 21 kts 360°
2026-05-06 21:52 60.19356 11.11626 681 ft 14 kts 314°
2026-05-06 21:52 60.19379 11.11508 679 ft 7 kts 286°
2026-05-06 21:52 60.19393 11.11416 678 ft 7 kts 286°
2026-05-06 21:53 60.19408 11.11309 678 ft 9 kts 286°
2026-05-06 21:53 60.19434 11.11127 681 ft 16 kts 285°
2026-05-06 21:53 60.19463 11.10922 682 ft 15 kts 286°
2026-05-06 21:53 60.19492 11.10722 682 ft 15 kts 286°
2026-05-06 21:54 60.19515 11.10556 682 ft 6 kts 282°
2026-05-06 21:54 60.19495 11.10510 683 ft 4 kts 201°
2026-05-06 21:54 60.19468 11.10494 684 ft 4 kts 196°
2026-05-06 21:54 60.19441 11.10478 684 ft 4 kts 196°
2026-05-06 21:55 60.19424 11.10469 684 ft 1 kts 196°
2026-05-06 21:55 60.19416 11.10464 684 ft 0 kts 196°